DW1653 Weather Reports


Display with metric or nautical units.
time (UTC)temp
F
wind
direction
speed
MPH
gust
MPH
rain 1hr
in
rain 24hr
in
rain mn
in
humidity
%
barometer
mb
20260904102824 76 288 3.0 6.0 0.00 0.12 0.01 89 1010.7
20260904102315 76 223 4.0 6.0 0.00 0.12 0.01 89 1010.7
20260904101827 76 257 4.0 6.0 0.00 0.12 0.01 89 1010.6
20260904101319 76 232 3.0 7.0 0.00 0.12 0.01 89 1010.7
20260904100831 76 259 4.0 6.0 0.00 0.12 0.01 89 1010.7
20260904100323 76 256 2.0 6.0 0.00 0.12 0.01 89 1010.6
20260904095817 76 256 3.0 8.0 0.00 0.12 0.01 89 1010.7
20260904095328 76 280 5.0 8.0 0.00 0.12 0.01 89 1010.6
20260904094823 76 275 3.0 8.0 0.00 0.12 0.01 89 1010.6
20260904094315 76 259 3.0 7.0 0.00 0.12 0.01 89 1010.6
20260904093825 76 302 3.0 7.0 0.00 0.13 0.01 89 1010.5
20260904093337 76 261 3.0 5.0 0.00 0.13 0.01 89 1010.7
20260904092830 76 279 2.0 5.0 0.00 0.13 0.01 88 1010.7
20260904092322 76 247 3.0 7.0 0.00 0.13 0.01 88 1010.8
20260904091834 76 262 3.0 7.0 0.00 0.13 0.01 88 1010.6
20260904091325 76 282 2.0 9.0 0.00 0.13 0.01 88 1010.7
20260904090824 76 234 4.0 9.0 0.00 0.13 0.01 88 1010.7
20260904090314 76 284 3.0 6.0 0.00 0.13 0.01 88 1010.7
20260904085825 76 279 3.0 8.0 0.00 0.13 0.01 88 1010.6
20260904085319 76 279 3.0 8.0 0.00 0.13 0.01 89 1010.6
20260904084831 76 276 3.0 6.0 0.00 0.13 0.01 88 1010.6
20260904084323 76 260 4.0 7.0 0.00 0.13 0.01 89 1010.6
20260904083324 76 286 3.0 7.0 0.00 0.16 0.01 89 1010.6
20260904082818 76 261 3.0 6.0 0.00 0.16 0.01 89 1010.5
20260904082329 76 284 3.0 6.0 0.00 0.16 0.01 88 1010.6
20260904081825 76 314 2.0 7.0 0.00 0.16 0.01 88 1010.7
20260904081336 76 273 4.0 7.0 0.00 0.16 0.01 88 1010.6
20260904080847 76 277 2.0 6.0 0.00 0.16 0.01 89 1010.5
20260904080317 76 271 2.0 6.0 0.00 0.16 0.01 88 1010.5
20260904075829 76 263 2.0 4.0 0.00 0.16 0.01 88 1010.5
20260904075320 76 263 1.0 4.0 0.01 0.16 0.01 88 1010.4
20260904074815 76 257 1.0 4.0 0.01 0.16 0.01 88 1010.6
20260904074326 77 264 3.0 5.0 0.01 0.16 0.01 88 1010.6
20260904073817 77 249 1.0 4.0 0.01 0.33 0.01 88 1010.6
20260904073348 77 229 1.0 4.0 0.01 0.33 0.01 88 1010.7
20260904072823 77 251 1.0 6.0 0.01 0.33 0.01 88 1010.6
20260904072333 77 243 4.0 6.0 0.01 0.33 0.01 87 1010.7
20260904071825 77 269 1.0 6.0 0.01 0.33 0.01 87 1010.7
20260904071316 77 280 3.0 6.0 0.01 0.33 0.01 87 1010.9
20260904070828 77 232 2.0 6.0 0.01 0.33 0.01 87 1010.8
20260904070319 77 311 1.0 7.0 0.01 0.33 0.01 86 1010.7
20260904065833 77 355 4.0 7.0 0.01 0.33 0.01 86 1010.9
20260904065325 77 251 1.0 2.0 0.00 0.32 0.00 86 1011.1
20260904064821 78 255 0.0 5.0 0.00 0.32 0.00 86 1010.9
20260904064332 78 255 1.0 6.0 0.00 0.32 0.00 86 1010.9
20260904063844 78 284 2.0 4.0 0.00 0.48 0.00 85 1010.7
20260904063318 78 276 1.0 4.0 0.00 0.48 0.00 85 1010.6
20260904062831 78 268 3.0 4.0 0.00 0.48 0.00 85 1010.7
20260904062325 78 244 2.0 7.0 0.00 0.48 0.00 85 1010.6
20260904061816 78 277 3.0 7.0 0.00 0.48 0.00 84 1010.7
20260904061331 78 254 3.0 9.0 0.00 0.48 0.00 84 1010.9
20260904060826 78 290 4.0 9.0 0.00 0.48 0.00 84 1011.0
20260904060317 78 259 2.0 7.0 0.00 0.48 0.00 84 1011.2
20260904055828 78 239 4.0 8.0 0.00 0.48 0.00 84 1011.2
20260904055320 78 281 5.0 8.0 0.00 0.48 0.00 84 1011.3
20260904054832 79 223 5.0 7.0 0.00 0.48 0.00 83 1011.7
20260904054324 78 311 2.0 7.0 0.00 0.48 0.00 83 1011.6
20260904053815 78 254 3.0 6.0 0.00 0.48 0.00 83 1011.8
20260904053327 79 263 3.0 8.0 0.00 0.48 0.00 83 1011.9
20260904052838 79 235 4.0 8.0 0.00 0.48 0.00 83 1011.9
20260904052349 79 232 3.0 7.0 0.00 0.48 0.00 83 1011.8
20260904051823 79 262 4.0 6.0 0.00 0.48 0.00 83 1011.9
20260904051314 79 257 2.0 4.0 0.00 0.48 0.00 83 1011.8
20260904050826 79 265 2.0 7.0 0.00 0.48 0.00 82 1011.7
20260904050318 79 294 4.0 7.0 0.00 0.48 0.00 82 1011.8
20260904045829 79 289 3.0 6.0 0.00 0.48 0.00 82 1011.8
20260904045324 79 252 3.0 5.0 0.00 0.48 0.00 82 1011.8
20260904044819 79 266 3.0 5.0 0.00 0.48 0.00 82 1012.0
20260904044330 79 236 3.0 5.0 0.00 0.48 0.00 82 1011.9
20260904043826 79 266 2.0 7.0 0.00 0.48 0.00 82 1012.0
20260904043317 79 283 3.0 7.0 0.00 0.48 0.00 82 1012.1
20260904042829 79 261 2.0 5.0 0.00 0.48 0.00 82 1012.1
20260904042320 79 279 3.0 5.0 0.00 0.48 0.00 82 1012.2
20260904041852 79 217 3.0 6.0 0.00 0.48 0.00 82 1012.2
20260904041320 79 270 3.0 6.0 0.00 0.48 0.00 82 1012.4
20260904040852 80 279 3.0 5.0 0.00 0.48 0.00 81 1012.4
20260904040321 80 299 3.0 6.0 0.00 0.48 0.00 81 1012.3
20260904035831 80 281 2.0 6.0 0.00 0.48 0.00 81 1012.3
20260904035323 80 228 3.0 7.0 0.00 0.48 0.00 81 1012.2
20260904034819 80 261 4.0 10.0 0.00 0.48 0.00 81 1012.4
20260904034329 80 263 5.0 10.0 0.00 0.48 0.00 81 1012.6
20260904033841 80 263 4.0 8.0 0.00 0.49 0.48 81 1012.7
20260904033314 80 242 4.0 8.0 0.00 0.49 0.48 81 1012.7
20260904032825 80 249 4.0 11.0 0.00 0.49 0.48 81 1012.7
20260904032320 80 240 4.0 11.0 0.00 0.49 0.48 81 1012.8
20260904031851 80 269 5.0 9.0 0.00 0.49 0.48 81 1012.7
20260904031321 80 247 3.0 8.0 0.00 0.49 0.48 81 1012.5
20260904030834 80 264 4.0 8.0 0.00 0.49 0.48 81 1012.5
20260904030329 80 258 4.0 7.0 0.00 0.49 0.48 81 1012.5
20260904025824 80 267 3.0 9.0 0.00 0.49 0.48 81 1012.5
20260904025315 80 246 4.0 9.0 0.00 0.49 0.48 81 1012.6
20260904024826 80 279 5.0 9.0 0.00 0.49 0.48 81 1012.6
20260904024318 80 242 4.0 10.0 0.00 0.49 0.48 81 1012.6
20260904023832 80 255 5.0 10.0 0.00 0.50 0.48 81 1012.7
20260904023324 80 252 4.0 9.0 0.00 0.50 0.48 81 1012.9
20260904022815 81 244 5.0 9.0 0.00 0.50 0.48 81 1013.1
20260904022330 81 240 6.0 8.0 0.00 0.50 0.48 81 1013.2
20260904021825 81 250 4.0 7.0 0.00 0.50 0.48 81 1013.0
20260904021319 81 274 3.0 8.0 0.00 0.50 0.48 81 1013.0
20260904020830 81 231 3.0 8.0 0.00 0.50 0.48 81 1013.2
20260904020322 81 261 4.0 10.0 0.00 0.50 0.48 81 1013.3
20260904015833 81 232 5.0 10.0 0.00 0.50 0.48 81 1013.3
20260904015345 81 263 5.0 9.0 0.00 0.50 0.48 81 1013.3
20260904014815 81 243 4.0 9.0 0.00 0.50 0.48 81 1013.3
20260904014329 81 271 4.0 9.0 0.00 0.50 0.48 81 1013.3
20260904013845 81 258 3.0 8.0 0.00 0.51 0.48 81 1013.2
20260904013319 81 217 5.0 8.0 0.00 0.51 0.48 80 1013.3
20260904012830 81 257 3.0 9.0 0.00 0.51 0.48 80 1013.5
20260904012345 81 270 5.0 9.0 0.00 0.51 0.48 80 1013.4
20260904011815 81 234 3.0 8.0 0.00 0.51 0.48 80 1013.3
20260904011327 81 246 4.0 7.0 0.00 0.51 0.48 80 1013.2
20260904010822 81 236 1.0 6.0 0.00 0.51 0.48 79 1013.2
20260904005825 82 268 1.0 4.0 0.00 0.51 0.48 79 1013.2
20260904005341 82 216 1.0 3.0 0.00 0.51 0.48 78 1013.0
20260904004831 82 214 1.0 4.0 0.00 0.51 0.48 78 1013.1
20260904004323 82 179 1.0 5.0 0.00 0.51 0.48 78 1013.0
20260904003834 82 220 1.0 5.0 0.00 0.51 0.48 77 1013.1
20260904003325 82 257 2.0 6.0 0.00 0.51 0.48 77 1013.3
20260904002816 83 239 2.0 6.0 0.00 0.51 0.48 76 1013.3
20260904002347 83 232 2.0 6.0 0.00 0.51 0.48 76 1013.1
20260904001818 83 263 2.0 6.0 0.00 0.51 0.48 75 1013.0
20260904001330 83 252 2.0 5.0 0.00 0.51 0.48 75 1013.0
20260904000828 83 277 2.0 6.0 0.00 0.51 0.48 75 1013.0
20260904000318 83 242 3.0 7.0 0.00 0.51 0.48 75 1012.9
20260903235830 83 260 3.0 7.0 0.00 0.51 0.48 74 1012.9
20260903235322 84 268 1.0 6.0 0.00 0.51 0.48 74 1012.7
20260903234833 84 242 2.0 7.0 0.00 0.51 0.48 74 1012.6
20260903234325 84 257 2.0 8.0 0.00 0.51 0.48 73 1012.6
20260903233816 84 257 3.0 8.0 0.00 0.51 0.48 73 1012.6
20260903233327 85 263 3.0 8.0 0.00 0.51 0.48 73 1012.6
20260903232822 85 240 3.0 8.0 0.00 0.51 0.48 72 1012.5
20260903232354 85 244 3.0 7.0 0.00 0.51 0.48 72 1012.5
20260903231845 85 226 3.0 7.0 0.00 0.51 0.48 71 1012.5
20260903231315 85 209 4.0 7.0 0.00 0.51 0.48 71 1012.6
20260903230826 86 241 3.0 6.0 0.00 0.51 0.48 71 1012.6
20260903230317 86 231 3.0 7.0 0.00 0.51 0.48 70 1012.5
20260903225831 86 248 2.0 5.0 0.00 0.51 0.48 70 1012.5
20260903225323 86 242 3.0 6.0 0.00 0.51 0.48 69 1012.3
20260903224815 86 271 3.0 8.0 0.00 0.51 0.48 69 1012.4
20260903224327 86 249 5.0 8.0 0.00 0.51 0.48 68 1012.4
20260903223822 87 270 3.0 9.0 0.00 0.51 0.48 68 1012.5
20260903223334 87 275 4.0 9.0 0.00 0.51 0.48 67 1012.4
20260903222824 87 288 3.0 9.0 0.00 0.51 0.48 67 1012.4
20260903222315 87 263 6.0 9.0 0.00 0.51 0.48 66 1012.3
20260903221317 88 255 4.0 11.0 0.00 0.51 0.48 66 1012.4
20260903220849 88 291 3.0 10.0 0.00 0.51 0.48 65 1012.4
20260903220318 88 294 3.0 10.0 0.00 0.51 0.48 65 1012.3
20260903215828 88 225 4.0 8.0 0.00 0.51 0.48 65 1012.3
20260903215341 88 279 2.0 9.0 0.00 0.51 0.48 65 1012.3
20260903214831 89 257 4.0 11.0 0.00 0.51 0.48 64 1012.2
20260903214325 89 244 5.0 11.0 0.00 0.51 0.48 64 1012.2
20260903213816 89 259 4.0 9.0 0.00 0.51 0.48 64 1012.2
20260903213328 89 296 3.0 9.0 0.00 0.51 0.48 64 1012.1
20260903212822 89 26 1.0 4.0 0.00 0.51 0.48 65 1012.1
20260903212334 89 277 2.0 8.0 0.00 0.51 0.48 65 1012.1
20260903211825 89 224 5.0 11.0 0.00 0.51 0.48 64 1012.1
20260903211315 89 181 4.0 11.0 0.00 0.51 0.48 64 1012.2
20260903210847 89 240 4.0 8.0 0.00 0.51 0.48 64 1012.2
20260903210317 89 289 3.0 8.0 0.00 0.51 0.48 64 1012.2
20260903205832 90 163 5.0 13.0 0.00 0.51 0.48 62 1012.2
20260903205324 90 284 5.0 13.0 0.00 0.51 0.48 62 1012.2
20260903204816 91 143 4.0 8.0 0.00 0.51 0.48 61 1012.2
20260903204326 91 246 3.0 9.0 0.00 0.51 0.48 60 1012.2
20260903203818 91 272 4.0 10.0 0.00 0.51 0.48 59 1012.1
20260903203330 91 287 5.0 10.0 0.00 0.51 0.48 60 1012.1
20260903202841 91 280 3.0 9.0 0.00 0.51 0.48 60 1012.1
20260903202332 91 250 3.0 7.0 0.00 0.51 0.48 60 1012.2
20260903201843 91 286 3.0 6.0 0.00 0.51 0.48 61 1012.3
20260903201332 91 263 2.0 7.0 0.00 0.51 0.48 61 1012.3
20260903200845 91 263 3.0 10.0 0.00 0.51 0.48 59 1012.4
20260903200321 92 236 5.0 10.0 0.00 0.51 0.48 59 1012.5
20260903195833 91 265 5.0 10.0 0.00 0.51 0.48 59 1012.5
20260903195324 91 252 6.0 10.0 0.00 0.51 0.48 60 1012.6
20260903194816 91 294 4.0 9.0 0.00 0.51 0.48 60 1012.6
20260903194347 91 268 4.0 11.0 0.00 0.51 0.48 60 1012.6
20260903193837 90 319 4.0 11.0 0.00 0.51 0.48 62 1012.8
20260903193348 90 266 6.0 13.0 0.00 0.51 0.48 61 1012.9
20260903192817 90 307 6.0 14.0 0.00 0.51 0.48 60 1013.0
20260903192352 90 302 5.0 16.0 0.00 0.51 0.48 60 1013.0
20260903191825 90 259 3.0 10.0 0.00 0.51 0.48 61 1012.9
20260903191320 90 295 4.0 10.0 0.00 0.51 0.48 62 1013.0
20260903190832 90 259 6.0 10.0 0.00 0.51 0.48 61 1013.0
20260903190326 90 275 5.0 12.0 0.00 0.51 0.48 62 1013.1
20260903185817 90 290 8.0 12.0 0.00 0.51 0.48 62 1013.1
20260903185328 90 241 5.0 9.0 0.00 0.51 0.48 63 1013.2
20260903184819 89 284 4.0 9.0 0.00 0.51 0.48 64 1013.2
20260903184311 89 336 3.0 14.0 0.00 0.51 0.48 65 1013.3
20260903183846 89 244 7.0 14.0 0.00 0.51 0.48 64 1013.4
20260903183319 89 290 3.0 10.0 0.00 0.51 0.48 65 1013.5
20260903182850 89 273 6.0 12.0 0.00 0.51 0.48 63 1013.5
20260903182324 89 287 5.0 10.0 0.00 0.51 0.48 64 1013.5
20260903181816 88 266 5.0 13.0 0.00 0.51 0.48 65 1013.5
20260903181327 88 230 6.0 12.0 0.00 0.51 0.48 65 1013.6
20260903180818 88 197 7.0 11.0 0.00 0.51 0.48 66 1013.8
20260903180330 88 264 5.0 10.0 0.00 0.51 0.48 66 1013.8
20260903175841 87 275 4.0 14.0 0.00 0.51 0.48 67 1013.8
20260903175331 86 282 5.0 14.0 0.00 0.51 0.48 67 1013.9
20260903174823 86 311 4.0 9.0 0.00 0.51 0.48 69 1013.9
20260903174354 86 298 3.0 12.0 0.00 0.51 0.48 69 1014.0
20260903173825 86 234 5.0 12.0 0.00 0.51 0.48 69 1014.0
20260903173319 85 267 6.0 11.0 0.00 0.51 0.48 70 1014.1
20260903172833 85 257 5.0 13.0 0.00 0.51 0.48 69 1014.3
20260903172324 86 291 5.0 13.0 0.00 0.51 0.48 68 1014.4
20260903171815 86 263 4.0 14.0 0.00 0.51 0.48 68 1014.5
20260903171329 86 281 6.0 14.0 0.00 0.51 0.48 68 1014.5
20260903170820 86 276 5.0 13.0 0.00 0.51 0.48 68 1014.6
20260903170330 86 248 8.0 14.0 0.00 0.51 0.48 68 1014.7
20260903165825 86 229 4.0 15.0 0.00 0.51 0.48 70 1014.7
20260903165340 86 254 4.0 15.0 0.00 0.51 0.48 71 1014.8
20260903164852 85 295 4.0 12.0 0.00 0.51 0.48 72 1014.8
20260903164321 85 242 5.0 12.0 0.00 0.51 0.48 71 1014.9
20260903163815 85 252 6.0 12.0 0.00 0.51 0.48 72 1015.0
20260903163327 85 236 6.0 12.0 0.00 0.51 0.48 71 1014.8
20260903162818 85 281 7.0 11.0 0.00 0.51 0.48 73 1014.9
20260903162329 85 296 4.0 11.0 0.00 0.51 0.48 73 1015.0
20260903161824 84 277 2.0 11.0 0.00 0.51 0.48 74 1015.1
20260903161316 84 287 4.0 11.0 0.00 0.51 0.48 75 1015.2
20260903160832 84 234 5.0 13.0 0.00 0.51 0.48 74 1015.3
20260903160322 84 257 5.0 13.0 0.00 0.51 0.48 75 1015.3
20260903155817 83 292 2.0 8.0 0.00 0.51 0.48 75 1015.1
20260903155333 83 277 3.0 8.0 0.00 0.51 0.48 75 1015.4
20260903154846 83 304 4.0 9.0 0.00 0.51 0.48 76 1015.3
20260903154315 83 284 5.0 11.0 0.00 0.51 0.48 75 1015.5
20260903153827 83 290 2.0 11.0 0.00 0.51 0.48 75 1015.4
20260903153319 83 290 3.0 8.0 0.00 0.51 0.48 76 1015.1
20260903152849 83 284 2.0 7.0 0.00 0.51 0.48 77 1015.2
20260903152324 82 291 3.0 7.0 0.00 0.51 0.48 78 1015.6
20260903151818 82 271 3.0 7.0 0.00 0.51 0.48 80 1015.6
20260903151350 81 233 4.0 11.0 0.00 0.51 0.48 80 1015.7
20260903150840 80 250 6.0 11.0 0.00 0.51 0.48 82 1015.6
20260903150351 80 275 2.0 8.0 0.00 0.51 0.48 84 1015.6
20260903145819 79 250 5.0 8.0 0.00 0.51 0.48 85 1015.5
20260903145331 79 276 3.0 7.0 0.00 0.51 0.48 87 1015.4
20260903144823 78 262 4.0 7.0 0.00 0.51 0.48 88 1015.3
20260903144315 78 296 2.0 6.0 0.00 0.51 0.48 90 1015.1
20260903143827 77 248 3.0 7.0 0.00 0.51 0.48 90 1015.2
20260903143318 76 254 2.0 8.0 0.00 0.51 0.48 91 1015.2
20260903142813 76 281 5.0 8.0 0.00 0.51 0.48 91 1015.0
20260903142328 75 273 4.0 7.0 0.00 0.51 0.48 92 1015.1
20260903141819 75 283 2.0 8.0 0.00 0.51 0.48 93 1015.0
20260903141354 75 254 5.0 10.0 0.00 0.51 0.48 93 1015.0
20260903140825 75 250 6.0 10.0 0.00 0.51 0.48 93 1014.9
20260903140319 74 269 2.0 7.0 0.00 0.51 0.48 94 1014.9
20260903135831 74 250 3.0 7.0 0.00 0.51 0.48 94 1015.0
20260903135323 74 253 4.0 9.0 0.00 0.51 0.48 94 1015.0
20260903134819 73 300 4.0 10.0 0.00 0.51 0.48 94 1015.2
20260903134330 73 316 3.0 10.0 0.00 0.51 0.48 94 1015.4
20260903133824 73 257 2.0 9.0 0.00 0.51 0.48 95 1015.3
20260903133316 73 250 3.0 8.0 0.00 0.51 0.48 95 1015.2
20260903132828 72 265 3.0 5.0 0.00 0.51 0.48 94 1015.4
20260903132318 72 249 2.0 4.0 0.00 0.51 0.48 94 1015.5
20260903131830 72 251 1.0 4.0 0.00 0.51 0.48 94 1015.5
20260903131342 72 201 1.0 4.0 0.00 0.51 0.48 94 1015.4
20260903130833 72 260 1.0 4.0 0.00 0.51 0.48 94 1015.6
20260903130344 72 256 2.0 7.0 0.00 0.51 0.48 95 1015.7
20260903125818 71 263 3.0 5.0 0.00 0.51 0.48 94 1016.3
20260903125350 71 267 2.0 4.0 0.00 0.51 0.48 94 1016.0
20260903124820 71 240 1.0 4.0 0.00 0.51 0.48 94 1015.7
20260903124333 71 267 2.0 6.0 0.00 0.51 0.48 94 1015.9
20260903123825 71 271 2.0 7.0 0.00 0.51 0.48 94 1015.9
20260903123336 71 218 2.0 7.0 0.00 0.51 0.48 94 1015.7
20260903122828 71 184 3.0 7.0 0.00 0.51 0.48 94 1015.7
20260903122320 71 159 2.0 7.0 0.00 0.51 0.48 94 1015.8
20260903121831 71 238 2.0 9.0 0.00 0.51 0.48 94 1016.0
20260903121323 71 186 3.0 9.0 0.00 0.51 0.48 94 1016.0
20260903120819 71 242 3.0 5.0 0.00 0.51 0.48 94 1016.0
20260903120350 71 234 2.0 5.0 0.00 0.51 0.48 94 1016.0
20260903115820 71 258 3.0 4.0 0.00 0.51 0.48 94 1016.0
20260903115312 71 229 2.0 6.0 0.00 0.51 0.48 94 1016.0
20260903114826 71 252 1.0 6.0 0.00 0.51 0.48 94 1015.9
20260903114317 71 217 2.0 5.0 0.00 0.51 0.48 94 1016.0
20260903113829 71 202 2.0 5.0 0.00 0.51 0.48 94 1016.1
20260903113321 71 248 2.0 5.0 0.00 0.51 0.48 94 1016.1
20260903112832 71 257 3.0 4.0 0.00 0.51 0.48 94 1016.1
20260903112328 71 244 2.0 4.0 0.01 0.51 0.48 94 1015.9
20260903111819 71 227 2.0 5.0 0.01 0.51 0.48 94 1015.6
20260903111332 71 277 2.0 5.0 0.01 0.51 0.48 94 1015.4
20260903110824 71 234 2.0 4.0 0.02 0.51 0.48 94 1015.6
20260903110317 71 245 1.0 4.0 0.04 0.51 0.48 94 1015.5
20260903105829 71 221 2.0 4.0 0.06 0.51 0.48 94 1015.2
20260903105320 71 234 2.0 7.0 0.07 0.51 0.48 94 1015.2
20260903104832 71 205 2.0 7.0 0.09 0.51 0.48 94 1015.3
20260903104328 71 178 3.0 7.0 0.10 0.51 0.48 94 1015.1
20260903103820 71 232 2.0 5.0 0.11 0.51 0.48 94 1015.6
20260903103336 71 182 2.0 5.0 0.12 0.51 0.48 94 1015.7